Location: Wald
(31.7579°N, 86.6655°W)
Time: 20:35:48
(UTC+00:00)

ATLAS 2A CENTAUR R/B - Pass Details

Date: 14 July 2020
Orbit: 276 x 15881 km, 26.8° (Epoch: 12 August)

Event Time Altitude Azimuth Distance (km) Brightness Sun altitude
Rises 07:44:42 0° 246° (WSW) 11,143 8.0 -30.3°
Enters shadow 07:45:49 - 246° (WSW) 10,819 7.9 -30.2°
Exits shadow 08:13:26 38° 150° (SSE) 1,467 3.7 -26.9°
Drops below altitude 10° 08:16:22 10° 106° (ESE) 2,021 4.9 -26.5°
Sets 08:17:48 0° 97° (E) 2,581 5.7 -26.3°
